STARLINK-34564, 64852

Orbit data source: Space-Track

STARLINK-34564, 64852 is a payload satellite owned by SpaceX/Seattle (US) in SSO that was launched on Sat, 19 Jul 2025 UTC via an FALCON 9 launch vehicle from the Air Force Western Test Range (AFWTR). Payload-class satellites include a variety of spacecraft equipped with specific instruments for various scientific and technological missions. These include communications satellites like Starlink; space stations such as the ISS; scientific satellites like the Hubble; Earth observation satellites from companies like Planet Labs, Umbra, and HawkEye 360; GPS; miniature CubeSats for education and research; and military/defense satellites.

Loading next visibility...
Identifier
64852, 2025-152L
Orbit
SSO
Country
Flag of USUS
Related business
Manufacturer
SpaceX/Seattle
Mission
Operational Commercial Communications
Bus & Motor
STARLINK V2MO, Unknown motor
Mass
575 kg wet, ~530 kg dry
Launch date (UTC)
2025-07-19 (9 months ago)
Launch vehicle
FALCON 9
Launch site
Air Force Western Test Range (AFWTR)
Object type
Payload
Rocket body
Debris
Shape & HBR
Box + 2 Pan, 17.7 m
Radar Cross Section
36.964 m², Large (>1 m²)

Expand to show TLE details & history
Last TLE update: 20 hours ago

TLE from 20 hours ago
0 STARLINK-34564
1 64852U 25152L   26094.25135533 -.00007882  00000-0 -54269-3 0  9994
2 64852  97.6030 310.7016 0002458  84.1698 275.9808 15.05646113 39266
Epoch: 2026-04-04T06:01Z
TLE epoch observation values (Epoch: 2026-04-04T06:01:57.100Z)
Latitude
-0.00012°
Longitude
27.63989°
Altitude
552.411 km
Speed
7.586 km/s
True Right ascension
20h 42m 48s
True Declination
0° 00' 00"
Sunlit
Object was in daylight at epoch
Visualization orbit readout
Latitude
Unknown
Longitude
Unknown
Altitude
Unknown
Speed
Unknown
Apparent Right ascension
Unknown
Apparent Declination
Unknown
Sunlit
N/A
Visualization observer readout
Local Sidereal Time
07:34:53
Azimuth
Unknown
Elevation
Unknown
Doppler factor
Unknown
Orbital elements
Apogee altitude
548.219 km
Perigee altitude
544.814 km
Semi-major axis
6,924.654 km
Eccentricity
0.00025
Inclination
97.603°
RAAN
310.7016°
Arg. of periapsis
84.1698°
True anomaly
275.95279°
Mean anomaly
275.9808°
Eccentric anomaly
275.96679°
Mean motion
3.76657 °/min
Orbital period
95.58 mins
BSTAR
-0.00054269
Loading maneuver chart data...
Computing Atmospheric mass density...
Loading historical data...
Loading historical data...
Loading historical data...
Loading historical data...
Loading historical data...
Loading historical data...
Loading historical data...

Documentation

Showing up to 5 results
|